Location: Bagnolo San Vito
(45.0833°N, 10.8833°E)
Time: 13:00:00
(UTC+00:00)

Helios 1A Rocket - Pass Details

Date: 03 March 2021
Orbit: 563 x 585 km, 98.3° (Epoch: 14 April)

Event Time Altitude Azimuth Distance (km) Brightness Sun altitude
Rises 17:37:49 0° 142° (SE) 2,768 6.1 -6.3°
Reaches altitude 10° 17:40:06 10° 133° (SE) 1,872 5.1 -6.7°
Maximum altitude 17:43:45 33° 69° (ENE) 966 3.6 -7.3°
Drops below altitude 10° 17:47:24 10° 5° (N) 1,875 5.5 -8.0°
Sets 17:49:41 0° 355° (N) 2,774 6.5 -8.4°
